Powrót do katalogu

STARLINK-36723

AktywnyŁącznośćVLEO
NORAD 67915·PAYLOAD·🇺🇸 United States

Wystrzelony Feb 22, 2026 z Vandenberg Space Force Base

Loading…

Następne Przeloty (najbliższe 24 godziny)

TLE

ŚwieżeSource: CelesTrak SupGP

Epoka: Sep 14, 2026, 20:57 UTC

1 67915C 26036M   26257.87340278  .00120410  00000+0  43638-2 0  2576
2 67915  43.0031 256.7261 0001456 267.4444 202.0258 15.27500231    13

Śledź STARLINK-36723 w czasie rzeczywistym z AllMySat

Download on the App Store